User: anonymous   Login
Location: Holcomb Observatory
(44.4922°N, 73.1654°W)
Time: 20:21:55
(UTC-04:00)
Language:

Cosmos 1727 Rocket - Orbit

View from above orbital plane
View from above orbital plane
View from above satellite
View from above satellite

Ground track
Ground track

The orbit data is extracted from the following two-line orbital elements,

1 16511U 86008B   15125.87072495  .00000025  00000-0  10533-4 0  9995
2 16511 082.9453 073.3988 0022857 284.2194 100.6551 13.75794823469948
Epoch (UTC): 05 May 2015 20:53:50
Eccentricity: 0.0022857
inclination: 82.9453°
perigee height: 962 km
apogee height: 995 km
right ascension of ascending node: 73.3988°
argument of perigee: 284.2194°
revolutions per day: 13.75794823
mean anomaly at epoch: 100.6551°
orbit number at epoch: 46994

The dashed part of the orbit path shows where the satellite is in the earth's shadow,  

DLR